Content
SEND FEEDBACK

Daily
Averages
Monthly
Summary
United States of America

WILMINGTON, NORTH CAROLINA


Home > North America > United States > North Carolina
Elevation: 21 meters     Latitude: 34 16N     Longitude: 077 54W

WEATHER
 
SELECT A DAY
Number of Records: 208,807;   Date Range: 1/1/95 - 7/29/14
 
SHARE

PRINT THIS DATA

[ ← Previous Day ]
WEATHER ALMANAC - 16 MARCH, 2013
[ Next Day → ]
[ °F ]   °C
Weather ElementAverageHighLow
Temperature18.3 °C26.1 °C (1:53 pm)13.9 °C (1:53 am)
Dewpoint7.5 °C8.9 °C (3:53 pm)5.6 °C (7:53 am)
Humidity50.6 %64 % (2:53 am)30 % (1:53 pm)
Barometer1011.2 hPa1014.6 hPa (1:53 am)1008.1 hPa (4:53 pm)
Wind Speed21.9 km/h33.3 km/h (12:53 pm)
Wind Gust50.1 km/h (6:53 pm)
Weather ElementAverage
Visibility16.1 km
Wind DirectionSW (223 °)

Weather ElementTotal
Precipitation---
Cooling Degree Days1.7 (Base 18.3)
Growing Degree Days10 (Base 10)
Averaged from 23 records on 16 March, 2013
WEATHER CONDITIONS BREAKOUT
WIND DIRECTION BREAKOUT
WEATHER BY HOUR - 16 MARCH, 2013
[ °F ]   °C
Local TimeTemperatureDewpointHumidityBarometerVisibilityWind DirectionWind SpeedGust SpeedPrecipitationEventsConditions
1:53 AM13.9 °C6.1 °C59 %1014.6 hPa16.1 kmSW (220°)22.2 km/h31.5 km/hClear
2:53 AM13.9 °C7.2 °C64 %1013.5 hPa16.1 kmSSW (210°)22.2 km/hClear
3:53 AM14.4 °C6.7 °C60 %1013.2 hPa16.1 kmSW (220°)22.2 km/h33.3 km/hClear
4:53 AM14.4 °C6.7 °C60 %1012.9 hPa16.1 kmSW (230°)20.4 km/hClear
5:53 AM13.9 °C6.7 °C62 %1012.9 hPa16.1 kmSW (230°)16.7 km/hClear
6:53 AM13.9 °C6.1 °C59 %1013.2 hPa16.1 kmSW (230°)16.7 km/hClear
7:53 AM14.4 °C5.6 °C56 %1012.9 hPa16.1 kmSW (230°)16.7 km/hClear
8:53 AM15.6 °C5.6 °C51 %1013.2 hPa16.1 kmWSW (240°)18.5 km/hClear
9:53 AM17.2 °C6.1 °C48 %1012.9 hPa16.1 kmWSW (250°)22.2 km/hMostly Cloudy
10:53 AM19.4 °C6.7 °C44 %1012.2 hPa16.1 kmWSW (250°)27.8 km/h40.7 km/hClear
11:53 AM22.8 °C6.7 °C35 %1011.5 hPa16.1 kmWSW (250°)27.8 km/h35.2 km/hClear
12:53 PM25 °C7.2 °C32 %1010.8 hPa16.1 kmSW (230°)33.3 km/h38.9 km/hClear
1:53 PM26.1 °C7.2 °C30 %1009.8 hPa16.1 kmWSW (240°)25.9 km/h38.9 km/hClear
2:53 PM25.6 °C8.3 °C33 %1008.5 hPa16.1 kmSSW (200°)25.9 km/h40.7 km/hClear
3:53 PM23.3 °C8.9 °C40 %1008.5 hPa16.1 kmSSW (200°)24.1 km/h44.4 km/hClear
4:53 PM22.8 °C8.9 °C41 %1008.1 hPa16.1 kmSSW (200°)27.8 km/hClear
5:53 PM21.1 °C8.9 °C46 %1008.1 hPa16.1 kmSSW (200°)24.1 km/h40.7 km/hClear
6:53 PM18.9 °C8.3 °C50 %1008.5 hPa16.1 kmSSW (210°)24.1 km/h50.1 km/hClear
7:53 PM17.8 °C8.3 °C54 %1008.8 hPa16.1 kmSSW (210°)20.4 km/h35.2 km/hClear
8:53 PM17.2 °C8.9 °C58 %1009.8 hPa16.1 kmSW (220°)18.5 km/hClear
9:53 PM16.7 °C8.9 °C60 %1010.8 hPa16.1 kmSW (220°)14.8 km/hClear
10:53 PM16.7 °C8.9 °C60 %1011.9 hPa16.1 kmSW (220°)14.8 km/hClear
11:53 PM16.1 °C8.9 °C62 %1011.9 hPa16.1 kmSW (220°)16.7 km/hClear
Hourly data recorded from KILM, located 0 kilometers away from Wilmington, North Carolina







STORIES FROM OUR PARTNERS